Tracking 22879 objects as of 21-Apr-2021
HD Live streaming from Space Station
objects crossing your sky now

STARLINK-2169

Track STARLINK-2169 now!
10-day predictions
STARLINK-2169 is classified as:


NORAD ID: 47752
Int'l Code: 2021-017AG
Perigee: 355.8 km
Apogee: 357.6 km
Inclination: 53.0 °
Period: 91.5 minutes
Semi major axis: 6727 km
RCS: Unknown
Launch date: March 4, 2021
Source: United States (US)
Launch site: AIR FORCE EASTERN TEST RANGE (AFETR)
aabbcc
Your satellite tracking list
Your tracking list is empty




NASA's NSSDC Master Catalog

Two Line Element Set (TLE):
1 47752U 21017AG  21110.91667824 -.00047520  00000-0 -33497-3 0  9993
2 47752  53.0460 307.5294 0001285  73.6866  37.6414 15.73272093  8122
Source of the keplerian elements: AFSPC